Location: Huberhof
(49.2050°N, 7.4980°E)
Time: 05:09:37
(UTC+00:00)

NOSS 3-3 (C) - Pass Details

Date: 29 October 2020
Orbit: 825 x 1387 km, 63.4° (Epoch: 22 November)

Event Time Altitude Azimuth Distance (km) Brightness Sun altitude
Rises 18:04:04 0° 211° (SSW) 3,415 7.3 -18.6°
Reaches altitude 10° 18:06:26 10° 209° (SSW) 2,524 6.5 -19.0°
Maximum altitude 18:12:13 70° 126° (SE) 1,004 3.8 -19.9°
Enters shadow 18:16:14 24° 49° (NE) 1,936 5.2 -20.6°
